INTELSAT 37E (IS-37E)   
1 42950U 17059A   19265.12063448 -.00000147  00000-0  00000+0 0  9995
2 42950   0.0097 165.1264 0002838  25.3749 195.6423  1.00272023  7389
BSAT-4A                 
1 42951U 17059B   19264.96785378 -.00000357  00000-0  00000+0 0  9993
2 42951   0.0476  21.7805 0001014  81.3206 355.7235  1.00273514  7289
ARIANE 5 R/B            
1 42952U 17059C   19264.25089187  .00000431  00000-0  15107-3 0  9991
2 42952   5.6116 230.0691 7261644  47.2625 354.3221  2.30204131 16542
ARIANE 5 DEB [SYLDA]    
1 42953U 17059D   19264.73044197  .00009947  00000-0  19903-2 0  9995
2 42953   5.9848 185.5306 6942362 128.7238 316.3369  2.72260494 18185